Location: Waco, TX
(31.5480°N, 97.1670°W)
Time: 15:40:48
(UTC-05:00)

ISS - Pass Details

Date: 18 September 2019
Orbit: 411 x 421 km, 51.6° (Epoch: 17 September)

Event Time Altitude Azimuth Distance (km) Brightness Sun altitude
Rises 22:07:07 0° 275° (W) 2,335 1.0 -33.0°
Enters shadow 22:09:46 - 302° (WNW) 1,626 0.1 -33.5°
Reaches altitude 10° 22:10:59 10° 321° (NW) 1,476 - -33.8°
Maximum altitude 22:11:28 10° 330° (NNW) 1,462 - -33.9°
Drops below altitude 10° 22:11:58 10° 338° (NNW) 1,477 - -34.0°
Sets 22:15:51 0° 24° (NNE) 2,342 - -34.7°
